Wetbulb
43.73 44.26 45.06 45.91 46.69 47.29 47.14 47.51 48.22 49.54 51.07 52.23 54.65 56.33 57.11 59.79 61.43 64.20 65.25 66.07 66.68 66.99 67.39 66.51 65.75 65.91 64.83 66.22 67.62 68.00 67.15 65.26 62.73 57.69 57.95 58.13 57.48 57.66 57.50 54.73 56.46 54.13 54.67
44.79 45.51 45.21 45.66 46.48 46.40 46.60 47.53 48.04 47.77 49.57 51.48 53.63 55.73 57.35 60.30 60.79 64.10 65.47 66.90 65.65 66.29 66.97 66.75 66.69 67.30 65.36 65.94 67.13 67.24 66.62 64.60 61.62 57.40 57.01 56.87 56.78 57.11 54.19 55.06 53.78 54.44 53.26
45.13 44.70 44.59 44.65 44.64 44.82 45.86 47.43 47.00 47.37 48.55 50.68 53.11 54.96 56.35 60.59 61.71 65.10 65.98 65.89 66.24 67.03 67.23 66.33 66.15 66.73 67.76 66.05 66.31 66.69 66.58 63.70 62.27 58.48 56.43 57.30 56.70 55.09 52.90 53.74 51.97 50.80 53.74
44.43 44.38 43.92 44.65 45.02 44.60 45.21 46.07 46.81 47.82 48.21 50.25 52.20 55.00 56.65 60.38 64.19 64.89 65.05 65.21 66.33 67.10 67.57 66.27 66.45 65.90 66.96 65.98 65.72 65.54 64.37 62.26 60.40 59.34 56.95 55.28 55.70 54.16 53.32 51.59 48.90 49.93 51.11
43.75 43.84 43.65 44.74 44.77 45.02 45.30 45.33 46.58 47.14 48.05 50.18 52.08 55.89 58.58 61.70 64.12 64.56 64.48 63.83 64.47 66.14 67.28 66.64 66.79 65.34 64.26 66.31 65.34 64.22 62.59 60.92 59.41 57.63 56.69 53.99 54.26 52.91 51.92 51.69 49.20 49.63 48.95
43.55 43.06 44.06 44.65 44.77 44.23 44.43 45.01 45.80 45.45 46.38 48.40 50.43 53.67 58.41 62.76 55.65 55.55 61.82 62.77 62.79 63.97 64.44 66.45 66.60 62.56 61.52 59.75 59.43 59.30 61.68 60.24 58.28 57.31 55.57 53.80 54.92 54.49 53.14 51.49 49.46 48.18 46.23
42.95 43.36 43.76 43.93 43.91 44.37 44.89 44.69 44.38 44.18 44.94 46.24 49.94 53.82 57.29 62.74 52.75 52.89 54.00 61.70 62.57 62.54 64.71 65.99 66.33 67.64 63.41 62.42 56.57 56.78 56.85 57.00 58.33 59.33 56.47 55.95 55.12 55.91 54.14 51.13 50.03 49.42 46.01
42.52 42.58 43.19 43.12 43.13 43.90 44.04 44.22 44.86 45.17 44.16 46.16 49.33 52.46 55.18 60.98 50.75 50.75 52.36 61.58 61.49 61.53 62.28 63.77 66.72 66.65 65.00 61.93 60.23 60.08 59.63 59.05 58.68 61.05 59.36 58.23 57.94 57.30 55.11 54.36 51.74 50.59 49.47
41.54 41.91 42.48 43.04 42.96 43.30 43.46 44.04 44.76 45.00 44.84 46.68 49.59 51.78 55.08 59.30 49.84 49.66 52.87 61.38 61.47 61.51 64.33 64.40 67.24 65.96 54.82 53.56 60.92 59.86 58.73 58.81 54.56 55.26 55.35 52.95 50.85 50.83 54.27 53.63 51.19 50.07 47.85
41.24 41.72 42.66 43.22 43.49 43.74 44.11 44.62 45.69 45.74 45.97 47.66 50.22 53.68 53.91 56.51 50.75 48.76 55.04 62.61 61.55 61.35 63.05 65.36 58.73 63.67 50.39 52.35 61.90 60.05 57.85 56.57 56.43 54.99 54.46 51.85 52.28 52.24 51.44 55.39 53.96 51.17 50.55
42.02 42.28 42.68 44.04 44.21 45.01 45.76 47.18 47.18 46.07 46.88 49.63 51.38 53.22 55.80 57.13 51.94 46.94 49.66 62.21 61.57 62.01 62.16 62.63 61.20 50.21 49.48 50.57 56.57 61.15 59.33 57.45 55.39 56.75 55.69 55.26 56.31 54.94 55.94 56.48 55.77 54.48 52.85
41.98 42.18 43.00 44.10 44.96 47.72 49.71 48.11 46.03 47.54 49.15 51.48 53.11 54.73 57.25 54.48 49.63 46.93 48.21 53.09 55.06 61.58 61.08 63.18 58.85 48.03 48.76 48.94 55.85 50.37 49.28 54.04 56.97 55.79 55.32 54.75 54.23 54.54 55.24 55.52 54.91 55.68 56.35
41.61 41.91 43.34 44.05 45.26 47.63 48.65 49.96 50.26 50.10 52.22 51.22 50.90 51.71 56.79 55.65 53.48 48.03 47.67 48.76 50.57 59.48 61.60 53.98 46.76 47.13 46.76 48.94 47.49 49.05 51.63 57.27 56.83 55.48 54.88 54.81 55.25 55.72 54.32 52.43 51.01 50.51 48.33
41.40 42.47 42.76 42.81 44.63 46.20 48.41 46.75 46.84 44.51 45.36 45.63 45.15 45.02 57.26 55.87 54.28 52.92 52.97 52.39 49.45 51.89 49.86 51.36 49.77 50.71 52.00 51.94 52.19 54.65 57.83 56.98 56.91 55.49 54.31 54.30 54.54 54.33 52.91 51.11 50.93 50.64 45.16
41.67 41.95 41.76 43.04 43.31 43.77 44.84 45.34 44.21 45.25 41.60 42.26 43.24 43.80 56.07 54.96 54.64 50.75 51.98 57.92 57.74 51.85 51.95 53.88 53.76 52.90 53.34 53.54 55.55 56.15 55.91 55.55 55.21 54.25 53.43 53.42 53.20 53.07 51.07 51.23 50.46 46.66 43.00
40.74 40.62 40.92 42.25 42.26 42.41 42.26 41.99 42.42 41.60 41.49 40.66 39.96 42.51 48.16 42.90 44.04 45.86 44.04 44.59 44.41 45.68 54.43 54.23 53.78 53.78 53.24 53.24 54.10 54.21 55.24 53.76 54.42 54.01 54.01 53.58 52.41 51.66 49.94 49.64 49.39 46.22 43.92
40.69 39.74 39.81 40.90 40.08 40.20 40.36 39.61 38.74 41.07 42.41 40.97 40.58 41.35 39.31 38.52 41.69 42.05 42.05 44.95 41.87 49.96 56.59 54.91 54.28 54.10 52.53 53.04 53.69 53.57 53.62 54.37 54.82 54.31 53.92 53.60 52.52 50.94 48.85 48.89 47.16 44.08 41.90
40.83 39.81 38.95 39.23 38.33 38.09 38.22 38.54 39.28 38.64 38.83 40.35 41.32 39.92 39.97 38.46 41.87 42.59 43.14 46.93 54.06 54.16 55.13 56.13 54.26 53.36 52.44 53.10 53.39 53.44 53.72 53.64 53.63 53.86 53.89 53.88 52.71 49.76 49.78 48.64 46.41 43.40 41.60
40.49 38.77 38.21 38.09 37.70 38.12 38.01 38.20 38.10 37.92 38.06 38.70 39.90 40.12 39.95 39.59 40.96 42.96 47.31 54.02 53.15 53.37 54.67 54.61 55.19 54.28 52.80 53.93 54.25 53.90 53.77 53.66 53.16 53.44 53.55 53.65 52.48 50.84 49.73 49.18 46.91 41.08 40.31
39.87 38.82 37.95 38.11 37.28 36.88 36.52 36.36 36.37 36.30 36.32 36.65 37.35 37.63 38.82 42.73 44.33 45.70 48.81 51.56 52.61 52.43 53.10 52.73 53.28 53.78 53.81 53.93 54.07 54.02 53.63 52.05 52.51 53.22 53.04 53.38 51.91 51.09 49.39 48.93 47.28 43.50 43.41
40.80 39.07 35.49 37.98 36.73 36.30 35.93 35.42 35.83 35.46 35.12 35.33 35.72 37.48 34.15 40.51 41.63 44.21 46.42 47.74 49.75 51.36 52.21 52.70 52.88 53.24 54.19 53.63 54.05 53.86 52.53 52.50 52.74 52.54 52.46 52.08 51.40 49.64 49.56 49.46 47.77 46.87 43.50
40.88 40.07 38.78 37.98 37.52 36.26 35.72 36.10 35.54 35.32 35.12 34.95 35.51 36.94 34.57 39.74 39.97 40.91 42.57 45.32 47.74 49.17 50.42 51.61 52.13 52.38 52.89 53.32 53.16 52.58 52.19 51.93 51.87 52.04 52.04 52.07 51.44 50.11 49.34 48.33 47.62 43.61 40.69
40.82 39.69 39.00 38.08 38.02 36.24 36.63 36.25 35.51 35.15 34.95 34.95 35.33 35.86 37.13 37.58 38.33 39.07 40.53 42.75 44.97 46.64 48.48 49.48 50.40 51.02 51.67 52.26 53.00 53.36 52.67 51.74 51.66 52.40 52.10 51.98 51.57 49.94 48.63 47.67 44.71 41.96 40.35
39.82 39.47 38.76 38.33 38.13 38.05 37.35 36.46 36.10 34.88 34.85 35.35 35.35 35.54 36.63 37.39 37.95 38.53 39.45 40.56 41.65 43.11 45.32 46.84 48.27 48.95 49.35 50.26 51.07 52.11 52.12 51.70 52.47 52.92 52.77 52.15 51.43 48.11 48.87 46.43 44.93 43.84 41.15
38.91 38.12 39.04 38.58 38.55 37.36 37.15 37.32 36.59 35.69 35.21 35.21 35.56 35.74 36.48 36.91 37.35 38.46 39.40 40.17 40.37 40.71 41.47 43.13 45.52 46.76 47.92 48.52 49.16 48.89 41.60 39.15 49.92 46.10 52.66 51.42 49.84 47.33 46.40 45.73 44.98 44.39 42.51
39.24 38.70 37.01 36.60 38.40 37.87 36.76 36.43 36.77 36.41 35.71 35.92 35.93 36.13 36.31 36.49 36.97 37.90 38.84 39.58 40.14 40.48 40.84 41.24 41.07 41.24 41.24 41.09 40.88 36.93 36.43 37.67 43.17 41.56 49.10 47.89 46.29 45.32 45.27 44.82 44.58 43.62 42.22
MSLP
1011.43 1010.89 1010.30 1009.59 1008.94 1008.24 1007.43 1006.71 1006.22 1005.56 1004.82 1003.96 1003.07 1002.19 1001.36 1000.49 999.75 999.09 998.79 999.04 998.90 1000.76 1000.86 1001.67 1001.64 1002.25 1003.54 1004.80 1005.67 1006.65 1007.19 1008.40 1010.02 1012.12 1012.99 1013.93 1014.81 1015.68 1016.75 1017.51 1018.02 1018.58 1019.41
1011.01 1010.34 1009.68 1008.96 1008.23 1007.48 1006.55 1005.77 1005.26 1004.65 1003.91 1003.01 1002.07 1001.13 1000.02 998.56 997.90 997.53 997.35 997.48 998.13 999.23 999.80 1000.49 1000.55 1001.85 1002.85 1003.81 1005.01 1005.85 1006.65 1007.62 1008.97 1011.10 1012.89 1013.77 1014.42 1015.48 1016.41 1017.60 1018.23 1018.67 1019.52
1010.59 1009.87 1009.20 1008.37 1007.69 1006.83 1005.85 1004.93 1004.23 1003.61 1002.75 1001.85 1000.91 999.69 997.91 996.59 996.35 995.28 995.89 996.41 997.25 998.00 999.06 999.64 1000.24 1001.21 1002.31 1003.21 1004.23 1005.08 1005.95 1007.05 1008.28 1009.90 1011.77 1012.99 1014.42 1015.47 1016.39 1017.52 1018.24 1018.93 1019.62
1010.02 1009.27 1008.55 1007.72 1006.92 1006.07 1005.13 1004.21 1003.34 1002.60 1001.82 1000.72 999.57 998.37 996.71 995.12 994.14 994.18 994.75 995.00 996.20 997.24 998.29 999.13 999.37 999.91 1001.00 1002.42 1003.58 1004.40 1005.29 1006.76 1008.24 1009.58 1011.35 1012.88 1013.89 1015.38 1016.13 1017.25 1018.67 1019.27 1019.77
1009.57 1008.75 1007.97 1007.11 1006.23 1005.27 1004.32 1003.46 1002.48 1001.70 1000.86 1000.01 998.60 997.25 995.39 993.32 992.71 993.39 993.92 994.80 995.86 996.81 997.40 998.32 998.61 998.69 999.74 1001.23 1002.73 1004.04 1004.87 1006.50 1007.90 1009.34 1011.14 1012.70 1013.60 1014.90 1015.43 1016.68 1017.79 1019.09 1020.03
1009.16 1008.14 1007.34 1006.46 1005.55 1004.59 1003.62 1002.64 1001.73 1000.95 1000.20 999.34 997.71 996.73 994.45 992.94 992.49 992.63 993.13 994.08 995.10 995.63 996.89 997.26 997.71 998.58 999.41 1000.42 1001.70 1002.64 1003.85 1005.64 1006.97 1008.60 1010.13 1010.89 1012.17 1013.34 1014.44 1015.36 1016.98 1018.73 1019.71
1008.50 1007.61 1006.75 1005.83 1004.83 1003.77 1002.82 1001.95 1001.09 1000.17 999.45 998.73 997.05 995.89 994.16 992.49 992.05 992.85 993.02 993.61 994.49 995.06 995.97 996.69 997.07 997.71 998.86 1000.21 1001.19 1002.23 1003.70 1004.59 1004.80 1006.45 1008.60 1010.01 1011.41 1011.61 1012.99 1014.67 1015.53 1016.72 1017.97
1008.10 1007.09 1006.02 1005.10 1004.01 1002.95 1002.00 1000.93 1000.11 999.38 998.64 997.93 996.52 995.27 994.00 992.31 992.12 992.45 992.49 993.66 994.07 994.61 995.38 995.89 996.61 997.53 998.21 999.87 1001.44 1002.61 1003.78 1004.72 1005.63 1006.17 1006.76 1008.01 1008.98 1010.17 1011.17 1012.23 1014.35 1016.19 1017.64
1007.60 1006.49 1005.38 1004.40 1003.10 1002.00 1000.99 1000.00 999.19 998.47 997.70 997.05 996.05 994.77 994.13 992.43 991.53 991.71 992.71 993.15 993.35 993.52 992.83 994.13 995.70 996.65 997.60 999.11 1000.49 1001.95 1003.53 1004.97 1006.14 1006.45 1007.01 1007.84 1008.82 1009.74 1010.95 1012.51 1014.31 1015.57 1017.35
1007.05 1005.95 1004.81 1003.63 1002.28 1000.87 999.89 998.92 998.16 997.61 996.84 996.17 995.07 994.17 993.54 992.51 991.53 991.58 991.63 992.18 992.47 992.43 990.52 991.56 993.69 995.77 997.16 998.15 999.37 1001.04 1002.72 1004.35 1005.75 1006.85 1007.79 1008.55 1008.88 1009.98 1010.57 1011.08 1012.24 1013.81 1015.59
1006.54 1005.44 1004.14 1002.69 1001.30 1000.02 998.69 997.67 997.05 996.61 995.99 994.97 993.95 993.22 992.39 991.54 990.73 991.28 991.39 991.87 991.88 992.13 991.38 992.31 994.05 995.39 996.83 997.62 998.63 1000.22 1001.32 1003.41 1005.45 1006.26 1007.60 1008.36 1009.14 1010.16 1010.67 1011.17 1011.76 1012.22 1013.69
1006.09 1004.93 1003.61 1002.20 1000.71 999.23 997.51 996.60 996.32 995.72 995.17 994.39 993.19 991.86 991.08 990.54 990.45 991.14 991.25 991.65 992.29 992.41 993.34 993.74 994.51 995.81 996.97 998.43 998.93 1000.25 1001.77 1003.11 1004.74 1006.20 1007.35 1008.16 1008.54 1009.75 1010.49 1011.13 1011.52 1012.05 1012.68
1005.75 1004.61 1003.38 1002.17 1000.60 999.27 997.89 996.54 996.28 995.64 995.26 994.49 993.26 991.85 990.63 990.63 990.60 990.72 991.24 991.57 992.15 992.94 993.65 994.83 995.42 996.77 997.73 998.45 999.44 1000.58 1001.67 1003.03 1004.39 1005.66 1006.69 1007.61 1007.99 1009.06 1010.27 1011.21 1011.99 1012.65 1013.24
1005.57 1004.61 1003.56 1002.38 1000.92 999.74 998.59 998.27 997.51 996.63 995.75 995.45 993.97 992.65 991.12 991.27 991.55 991.93 991.79 991.92 992.59 993.65 994.35 995.45 996.35 996.77 997.64 999.39 1000.35 1001.01 1001.63 1002.44 1003.28 1004.49 1005.90 1007.19 1007.82 1009.07 1010.33 1010.89 1011.81 1012.60 1013.97
1005.55 1004.73 1003.87 1002.71 1001.40 1000.09 999.45 999.09 998.47 998.11 997.61 996.23 995.26 993.98 991.87 991.75 991.88 991.96 992.09 992.28 992.72 993.75 994.76 995.91 996.55 997.77 998.49 999.76 1000.79 1001.46 1001.90 1002.64 1003.51 1004.43 1005.39 1006.90 1007.68 1008.90 1010.25 1010.83 1011.35 1012.59 1013.73
1005.75 1004.96 1004.33 1003.11 1001.93 1000.91 1000.11 999.01 998.58 998.27 996.91 996.67 996.80 995.87 993.42 992.37 992.07 991.95 991.92 992.59 992.30 993.49 994.56 995.25 996.80 997.93 998.37 999.55 1000.97 1001.68 1002.00 1002.46 1003.36 1004.29 1005.47 1006.13 1007.12 1008.50 1009.76 1010.49 1011.27 1012.12 1013.49
1006.10 1005.54 1004.92 1003.85 1002.81 1001.93 1001.19 1000.75 999.57 998.71 997.33 996.53 995.42 994.51 993.41 993.17 992.99 992.41 992.65 993.54 993.83 992.83 993.39 994.07 996.37 997.54 998.04 999.70 1000.69 1001.38 1001.83 1002.42 1003.15 1004.27 1004.98 1006.23 1007.24 1008.11 1009.03 1010.52 1011.15 1011.83 1013.47
1006.33 1005.91 1005.49 1004.88 1003.91 1002.97 1002.14 1001.80 1000.60 999.90 999.17 998.12 996.47 995.28 995.20 994.57 994.70 994.52 994.23 994.28 994.21 993.88 993.71 994.91 996.28 997.79 999.01 1000.11 1000.97 1001.81 1002.43 1002.75 1003.33 1004.15 1004.97 1006.08 1006.92 1008.08 1008.99 1010.21 1011.09 1011.69 1013.15
1006.58 1006.25 1005.93 1005.48 1004.94 1004.14 1003.28 1002.75 1002.16 1001.02 1000.37 999.35 997.83 996.28 995.97 996.00 995.34 995.41 995.71 995.62 995.62 995.17 995.67 996.29 997.37 998.44 999.45 1000.29 1001.10 1001.85 1002.24 1002.59 1003.37 1004.24 1004.71 1005.68 1007.03 1007.63 1008.87 1009.96 1010.71 1011.65 1012.63
1007.02 1006.62 1006.19 1005.75 1005.37 1004.73 1004.11 1003.63 1003.09 1002.78 1002.05 1001.40 1000.41 999.77 998.76 997.55 997.45 997.45 996.97 996.64 996.62 996.71 997.17 997.56 997.99 998.97 999.76 1000.47 1001.05 1001.79 1002.13 1002.97 1003.58 1004.11 1004.67 1005.75 1007.02 1007.69 1008.43 1009.67 1010.67 1011.79 1012.65
1007.31 1006.88 1006.51 1006.21 1005.93 1005.59 1004.93 1004.23 1003.71 1003.25 1003.04 1002.56 1002.05 1001.52 1000.67 999.82 998.89 998.43 998.51 998.43 998.06 997.65 997.83 997.95 998.37 999.18 999.93 1000.54 1001.27 1001.91 1002.22 1002.99 1003.41 1003.94 1004.78 1006.12 1006.99 1007.77 1008.68 1009.62 1010.87 1011.92 1012.95
1007.65 1007.25 1006.90 1006.57 1006.34 1006.13 1005.89 1005.43 1004.65 1003.93 1003.61 1003.34 1002.88 1002.37 1001.83 1001.16 1000.55 1000.01 999.03 998.91 998.88 998.76 998.84 998.83 998.90 999.61 1000.00 1000.40 1000.99 1001.45 1002.09 1002.68 1003.41 1004.17 1005.25 1005.99 1006.95 1008.13 1008.90 1009.64 1010.74 1012.07 1013.24
1008.15 1007.79 1007.42 1007.09 1006.75 1006.45 1006.08 1005.75 1005.47 1005.10 1004.66 1004.27 1003.93 1003.32 1002.69 1002.20 1001.71 1001.06 1000.56 999.88 999.33 999.33 999.18 999.21 999.51 999.86 1000.28 1000.57 1001.01 1001.33 1001.90 1002.61 1003.34 1004.17 1004.81 1005.97 1006.87 1007.64 1008.35 1009.46 1010.79 1011.89 1012.11
1008.72 1008.44 1008.13 1007.68 1007.25 1006.86 1006.59 1006.30 1005.97 1005.61 1005.25 1004.83 1004.47 1004.01 1003.44 1002.91 1002.41 1001.95 1001.69 1001.28 1000.79 1000.35 1000.02 1000.08 1000.12 1000.39 1000.47 1000.94 1001.40 1001.85 1002.41 1002.91 1003.47 1004.06 1004.49 1005.53 1006.57 1007.61 1008.64 1009.84 1010.66 1012.10 1012.91
1009.15 1008.95 1008.68 1008.37 1008.09 1007.80 1007.39 1007.05 1006.77 1006.45 1006.11 1005.67 1005.25 1004.75 1004.29 1003.83 1003.32 1002.88 1002.46 1002.14 1001.84 1001.61 1001.39 1001.18 1001.06 1001.05 1001.17 1001.55 1001.92 1002.13 1002.71 1003.21 1003.64 1004.10 1005.03 1005.75 1006.43 1007.60 1008.67 1009.71 1010.85 1011.83 1013.07
1009.48 1009.34 1009.19 1009.00 1008.77 1008.43 1008.13 1007.97 1007.71 1007.36 1006.99 1006.66 1006.23 1005.75 1005.31 1004.84 1004.43 1004.02 1003.53 1003.11 1003.05 1002.80 1002.62 1002.63 1002.48 1002.19 1002.30 1002.59 1002.77 1003.05 1003.36 1003.75 1004.30 1004.59 1005.03 1005.87 1006.85 1007.93 1009.15 1010.05 1010.89 1011.74 1012.96
Wind_Speed
7 8 9 11 13 14 14 13 13 15 16 17 18 19 21 22 21 23 22 19 22 23 16 18 18 16 11 8 8 10 9 7 9 3 3 10 10 13 9 6 10 8 7
8 13 12 12 14 15 15 15 13 17 17 17 18 19 23 23 21 25 23 18 22 21 20 18 18 12 15 12 11 13 11 8 9 10 8 8 6 11 11 11 8 7 6
11 10 14 14 14 16 17 17 15 16 17 18 18 20 23 20 28 23 23 22 23 20 17 18 19 17 12 10 11 13 11 8 9 10 7 7 7 10 9 7 8 6 5
12 13 15 16 16 16 18 18 17 16 17 18 19 20 23 23 23 18 19 16 17 16 16 18 20 19 17 14 12 12 11 11 11 10 10 9 10 8 9 10 6 4 7
13 16 17 16 16 17 16 18 17 16 16 17 20 19 22 24 12 19 18 17 13 16 16 16 16 18 21 18 12 11 14 11 12 12 10 9 10 11 13 8 7 7 3
14 16 16 16 17 17 17 18 17 17 17 16 19 19 20 12 11 17 20 18 16 14 16 12 16 13 16 21 19 23 21 18 16 11 10 15 15 13 10 12 11 9 6
15 15 16 16 18 17 17 18 18 17 16 17 18 18 18 13 16 19 14 11 13 18 14 17 16 12 17 17 21 24 18 22 27 18 19 16 15 19 15 15 15 12 5
15 16 16 17 18 17 17 17 17 14 14 15 17 17 18 14 16 19 20 13 9 11 12 20 18 16 17 20 18 17 17 14 15 12 19 21 15 19 19 12 14 9 6
14 16 17 17 18 18 17 18 16 14 14 13 14 18 13 20 13 19 17 14 14 12 15 28 24 19 22 26 20 19 17 13 3 5 9 14 16 18 17 15 13 12 5
16 17 17 18 17 18 18 17 15 11 13 11 15 14 16 17 14 13 15 7 10 6 3 24 25 19 25 25 20 19 18 14 13 10 9 9 16 17 21 16 16 14 9
16 16 17 17 17 18 17 13 9 10 11 12 14 14 15 18 9 16 17 8 5 5 3 6 6 22 24 21 21 17 18 16 13 11 10 10 11 12 12 10 14 14 11
16 16 16 17 15 14 15 7 8 9 8 11 14 14 9 4 11 13 17 10 8 9 7 5 6 17 23 20 19 17 22 19 12 11 10 10 11 11 11 10 10 8 7
16 16 15 17 16 14 14 13 10 10 7 9 12 11 4 5 5 13 12 16 13 7 5 10 15 16 16 11 19 26 23 12 12 11 11 9 10 10 9 6 7 9 9
15 14 13 14 16 13 8 7 7 10 11 10 12 11 5 5 4 5 6 8 16 11 16 10 14 13 10 12 16 15 11 12 13 13 10 8 8 10 8 5 7 7 5
12 11 12 10 12 13 10 7 6 5 4 10 12 11 3 5 3 4 3 9 10 13 16 11 10 9 9 10 9 8 9 10 10 10 11 11 11 10 7 7 8 6 5
11 9 10 9 10 10 10 13 11 13 17 9 10 9 2 12 5 9 9 4 20 22 11 14 10 9 9 10 8 8 8 10 9 10 10 11 12 12 10 8 9 7 10
10 11 9 10 9 10 10 10 11 13 15 13 21 21 23 14 15 11 9 15 5 10 11 12 10 8 8 6 8 8 9 9 11 10 11 10 11 10 13 10 9 10 9
10 14 8 8 8 9 9 9 9 9 10 12 15 17 23 18 15 12 8 7 2 6 7 11 10 8 8 8 8 7 8 8 9 10 11 11 11 12 12 12 11 12 12
8 8 8 7 7 9 8 8 8 10 10 11 13 18 22 18 16 13 10 4 2 4 6 5 8 8 8 9 8 7 9 9 9 10 11 11 11 12 12 10 11 13 15
7 11 9 7 7 8 7 7 8 8 8 8 9 11 12 10 6 6 6 5 3 5 5 5 5 6 7 8 8 8 9 9 9 9 9 9 10 10 11 12 12 13 11
5 7 8 7 7 7 8 9 8 7 8 8 8 9 13 7 8 6 4 4 3 3 4 5 6 6 7 8 8 9 9 9 9 9 9 9 10 10 10 10 9 9 9
6 5 7 7 7 8 7 7 8 9 8 8 8 8 11 7 7 7 8 5 3 3 3 4 6 6 6 8 8 8 9 9 8 9 10 10 11 11 10 10 11 10 10
5 7 7 7 7 7 7 7 7 7 7 8 8 8 8 7 6 7 7 7 6 4 3 4 4 4 4 4 5 7 10 10 11 11 12 11 11 11 11 12 12 12 14
5 5 6 6 7 7 7 8 8 9 8 8 9 9 9 8 8 8 7 6 6 7 6 5 4 5 5 4 4 4 5 6 8 11 16 14 11 11 10 10 11 12 11
4 4 4 5 6 7 7 7 8 8 8 8 8 8 8 9 9 9 8 7 7 7 8 7 6 7 7 7 6 8 7 8 8 9 9 11 14 15 13 12 13 12 12
2 3 2 3 5 5 7 7 7 7 8 7 8 8 8 9 9 9 9 9 8 8 9 7 9 11 10 8 8 8 9 10 9 11 11 12 13 12 11 13 18 12 15
Wind_Direction
282 276 280 286 289 286 285 283 283 285 285 285 284 284 284 267 272 233 216 202 179 198 206 200 197 194 190 169 172 179 170 158 153 62 94 150 143 150 147 125 143 127 145
294 298 293 294 291 288 287 285 285 284 282 281 281 279 279 265 281 228 209 205 193 197 203 201 193 190 186 173 177 176 177 154 139 146 136 156 143 151 144 137 145 137 141
299 298 298 292 292 289 290 289 288 286 285 282 279 277 289 268 262 209 202 193 189 194 198 206 199 184 170 171 177 177 175 149 149 147 140 151 137 149 131 126 138 120 137
301 299 298 297 295 288 287 287 286 285 285 285 285 276 277 272 220 202 197 186 190 189 203 208 200 196 175 160 171 172 149 143 140 140 134 146 146 145 141 142 128 123 141
301 304 300 296 291 289 288 292 288 289 287 287 290 289 291 286 215 196 187 186 176 192 203 208 215 199 179 166 159 160 143 145 144 141 144 150 151 162 169 157 143 136 127
301 302 298 294 292 292 289 289 289 293 290 292 290 291 280 245 205 170 183 189 193 186 208 205 208 195 170 152 151 149 157 157 153 150 168 169 171 168 155 155 143 153 165
304 299 298 295 292 291 293 294 290 290 292 289 289 294 294 259 193 179 174 149 181 193 207 208 205 199 166 155 153 151 165 171 163 161 164 176 170 178 157 158 165 161 158
304 300 298 298 292 290 288 285 284 286 287 288 290 295 298 294 193 194 185 196 191 198 214 214 195 176 158 149 154 155 165 171 171 170 173 176 181 168 170 158 151 124 102
304 301 302 297 293 292 287 286 286 288 287 285 285 288 289 297 200 189 180 203 203 229 250 196 189 176 153 151 154 157 160 170 175 202 185 160 149 144 152 135 153 142 135
307 304 302 298 295 295 290 284 280 278 280 280 280 282 281 290 207 191 176 199 211 180 264 161 151 158 153 150 153 156 157 165 150 132 129 124 145 153 155 161 157 157 141
304 307 304 305 308 298 286 277 266 265 267 276 279 282 280 272 194 180 189 186 164 162 139 110 131 144 153 154 150 163 166 148 150 137 141 143 152 157 163 162 170 162 161
311 312 315 320 315 313 316 279 263 261 277 284 288 288 274 185 165 187 173 165 151 143 152 156 121 160 159 161 155 137 136 138 137 142 145 152 154 163 168 161 162 161 162
317 325 333 324 322 332 354 360 7 358 346 332 327 310 167 169 158 174 168 143 124 125 128 114 124 146 137 122 130 138 142 142 150 147 154 162 164 155 139 104 89 97 77
324 332 338 325 333 342 346 2 4 6 9 355 346 338 172 142 133 161 149 111 107 99 101 100 111 103 102 127 136 142 146 152 163 152 150 145 133 144 151 136 140 140 99
327 341 341 329 340 337 346 352 358 22 339 355 357 326 256 123 136 108 146 169 138 128 121 117 112 104 141 126 140 146 147 145 150 148 142 147 142 145 151 145 139 132 116
335 350 339 332 340 342 346 343 357 346 345 2 14 329 335 33 59 44 84 138 133 143 133 123 129 136 135 131 148 152 153 145 149 147 157 153 153 157 151 145 142 138 134
339 351 340 345 347 347 349 354 343 346 350 349 351 10 19 27 27 54 81 128 198 113 133 114 124 147 112 149 159 166 164 157 150 158 156 157 156 150 147 151 146 134 134
344 357 351 354 342 345 346 353 343 355 352 343 348 355 19 17 45 39 80 71 77 58 83 128 122 136 150 163 166 164 162 149 156 158 158 157 161 156 155 156 154 145 143
349 2 357 358 352 345 345 355 356 355 358 351 353 3 358 357 10 25 16 75 27 64 103 110 139 150 158 167 163 166 164 160 158 164 162 157 162 159 157 158 150 151 146
357 358 359 2 2 356 356 358 2 5 359 1 3 4 345 353 23 9 18 12 82 89 100 114 121 135 151 160 158 165 155 156 160 163 159 153 157 159 153 153 153 153 157
345 359 355 15 16 7 359 358 1 7 11 8 2 355 346 357 350 357 42 34 32 81 116 126 127 142 153 148 157 167 152 155 157 148 148 149 152 147 147 138 136 141 131
350 360 9 11 10 15 7 3 357 5 14 10 2 3 355 11 10 3 350 18 33 84 100 125 133 147 151 158 158 146 152 149 147 148 153 150 149 151 147 134 138 133 132
0 12 15 11 6 358 5 11 15 17 17 13 10 6 9 14 13 16 8 2 7 29 48 80 105 113 106 114 145 158 160 164 159 156 150 155 156 149 145 148 145 147 144
15 21 25 6 8 8 13 12 10 8 12 17 13 11 12 13 17 22 17 15 19 21 28 35 63 98 94 95 106 116 131 148 161 165 154 154 146 140 139 141 144 147 143
35 26 9 3 10 9 4 17 17 19 13 9 15 16 17 20 21 22 24 28 31 36 33 30 40 53 73 94 106 113 119 128 149 150 151 142 138 135 140 143 146 143 144
78 59 24 4 30 21 26 20 19 20 18 13 12 18 20 23 26 27 28 32 35 43 48 44 47 58 61 57 69 85 106 122 130 129 130 131 130 128 134 142 146 141 146